Date String (YYYY-MM-DD hh:mm:ss) UTC,Instrument flags,Ambient pressure (hPa),Sample flow (lpm),Bypass flow (lpm),Sample temperature (°C),Ambient temperature (°C),ASC tube jacket temperature (°C),LED temperature (°C),Box temperature (°C),Sample RH (%),Span deviation,Mass concentration (μg/m³),Mass concentration (μg/m³),Mass concentration (μg/m³)
DateTimeUTC,F1_M11,P_M11,Q1_M11,Q2_M11,T1_M11,T2_M11,T3_M11,T4_M11,T5_M11,U1_M11,ZSPAN_M11,X0_M11,X2_M11,X1_M11
2022-05-02 19:00:00,,0825.4,5.00,0.00,23.8,23.0,00.0,32.8,25.6,21.0,0000.0,0002.16,0001.84,0001.76
2022-05-02 19:01:00,,0825.4,5.00,0.00,23.8,23.0,00.0,32.8,25.6,21.3,0000.0,0002.22,0001.86,0001.77
2022-05-02 19:02:00,,0825.3,4.99,0.00,23.8,23.0,00.0,32.8,25.5,21.4,0000.0,0002.28,0001.90,0001.79
2022-05-02 19:03:00,,0825.4,5.00,0.00,23.8,23.0,00.0,32.8,25.5,21.5,0000.0,0002.33,0001.93,0001.80
2022-05-02 19:04:00,,0825.4,5.01,0.00,23.7,22.9,00.0,32.8,25.5,21.6,0000.0,0002.38,0001.95,0001.81
2022-05-02 19:05:00,,0825.4,4.99,0.00,23.7,22.9,00.0,32.8,25.5,21.6,0000.0,0002.37,0001.94,0001.81
2022-05-02 19:06:00,,0825.4,4.99,0.00,23.7,22.9,00.0,32.8,25.5,21.4,0000.0,0002.39,0001.95,0001.79
2022-05-02 19:07:00,,0825.4,5.00,0.00,23.7,22.9,00.0,32.7,25.5,21.4,0000.0,0002.38,0001.93,0001.75
2022-05-02 19:08:00,,0825.4,5.01,0.00,23.7,22.9,00.0,32.7,25.5,21.4,0000.0,0002.35,0001.90,0001.71
2022-05-02 19:09:00,,0825.3,5.00,0.00,23.7,22.9,00.0,32.7,25.4,21.3,0000.0,0002.33,0001.87,0001.67
2022-05-02 19:10:00,,0825.4,5.01,0.00,23.7,22.8,00.0,32.7,25.4,21.3,0000.0,0002.32,0001.84,0001.64
2022-05-02 19:11:00,,0825.4,4.99,0.00,23.7,22.9,00.0,32.7,25.4,21.2,0000.0,0002.30,0001.82,0001.62
2022-05-02 19:12:00,,0825.4,5.00,0.00,23.7,22.9,00.0,32.7,25.5,21.2,0000.0,0002.28,0001.80,0001.60
2022-05-02 19:13:00,,0825.4,5.00,0.00,23.7,22.9,00.0,32.7,25.5,21.3,0000.0,0002.22,0001.76,0001.57
2022-05-02 19:14:00,,0825.4,5.01,0.00,23.7,22.9,00.0,32.7,25.5,21.5,0000.0,0002.22,0001.74,0001.55
2022-05-02 19:15:00,,0825.4,5.00,0.00,23.7,22.9,00.0,32.7,25.5,21.4,0000.0,0002.21,0001.72,0001.52
2022-05-02 19:16:00,,0825.3,5.00,0.00,23.7,22.9,00.0,32.7,25.5,21.3,0000.0,0002.27,0001.72,0001.50
2022-05-02 19:17:00,,0825.4,4.99,0.00,23.6,22.9,00.0,32.7,25.5,21.3,0000.0,0002.25,0001.69,0001.49
2022-05-02 19:18:00,,0825.4,5.01,0.00,23.7,22.9,00.0,32.7,25.4,21.3,0000.0,0002.31,0001.68,0001.48
2022-05-02 19:19:00,,0825.4,5.01,0.00,23.7,22.9,00.0,32.7,25.5,21.3,0000.0,0002.40,0001.67,0001.47
2022-05-02 19:20:00,,0825.4,5.01,0.00,23.7,22.9,00.0,32.7,25.5,21.3,0000.0,0002.38,0001.65,0001.46
2022-05-02 19:21:00,,0825.4,4.99,0.00,23.6,22.8,00.0,32.7,25.4,21.1,0000.0,0002.47,0001.64,0001.45
2022-05-02 19:22:00,,0825.3,4.99,0.00,23.6,22.8,00.0,32.7,25.4,21.0,0000.0,0002.45,0001.62,0001.44
2022-05-02 19:23:00,,0825.4,5.00,0.00,23.6,22.8,00.0,32.7,25.4,21.1,0000.0,0002.43,0001.60,0001.43
2022-05-02 19:24:00,,0825.4,5.01,0.00,23.6,22.8,00.0,32.6,25.4,21.2,0000.0,0002.45,0001.59,0001.40
2022-05-02 19:25:00,,0825.4,4.99,0.00,23.6,22.9,00.0,32.6,25.4,21.4,0000.0,0002.48,0001.55,0001.38
2022-05-02 19:26:00,,0825.4,5.00,0.00,23.6,22.9,00.0,32.6,25.4,21.5,0000.0,0002.37,0001.50,0001.35
2022-05-02 19:27:00,,0825.4,5.01,0.00,23.6,22.9,00.0,32.6,25.5,21.6,0000.0,0002.33,0001.49,0001.33
2022-05-02 19:28:00,,0825.4,5.00,0.00,23.7,22.9,00.0,32.6,25.5,21.5,0000.0,0002.34,0001.51,0001.34
2022-05-02 19:29:00,,0825.4,5.00,0.00,23.7,22.9,00.0,32.6,25.5,21.5,0000.0,0002.28,0001.51,0001.35
2022-05-02 19:30:00,,0825.4,4.99,0.00,23.7,22.9,00.0,32.6,25.5,21.6,0000.0,0002.19,0001.51,0001.36
2022-05-02 19:31:00,,0825.4,4.99,0.00,23.7,23.0,00.0,32.6,25.5,21.7,0000.0,0002.14,0001.48,0001.34
2022-05-02 19:32:00,,0825.4,5.00,0.00,23.7,23.0,00.0,32.6,25.5,21.6,0000.0,0001.96,0001.45,0001.31
2022-05-02 19:33:00,,0825.4,5.00,0.00,23.7,23.0,00.0,32.6,25.5,21.5,0000.0,0002.92,0001.41,0001.28
2022-05-02 19:34:00,,0825.3,5.01,0.00,23.7,23.0,00.0,32.7,25.5,21.4,0000.0,0002.85,0001.38,0001.27
2022-05-02 19:35:00,,0825.4,5.00,0.00,23.7,23.0,00.0,32.7,25.5,21.2,0000.0,0002.82,0001.37,0001.26
2022-05-02 19:36:00,,0825.4,4.99,0.00,23.7,22.9,00.0,32.7,25.5,21.3,0000.0,0002.77,0001.39,0001.26
2022-05-02 19:37:00,,0825.4,5.00,0.00,23.7,22.9,00.0,32.7,25.5,21.3,0000.0,0002.85,0001.43,0001.29
2022-05-02 19:38:00,,0825.4,5.01,0.00,23.7,22.9,00.0,32.7,25.5,21.2,0000.0,0002.86,0001.44,0001.31
2022-05-02 19:39:00,,0825.4,5.00,0.00,23.7,23.0,00.0,32.7,25.5,21.0,0000.0,0002.86,0001.42,0001.29
2022-05-02 19:40:00,,0825.4,5.00,0.00,23.7,23.0,00.0,32.7,25.5,20.6,0000.0,0002.79,0001.36,0001.23
2022-05-02 19:41:00,,0825.4,4.99,0.00,23.7,22.9,00.0,32.7,25.5,20.5,0000.0,0002.73,0001.30,0001.17
2022-05-02 19:42:00,,0825.4,5.00,0.00,23.7,22.9,00.0,32.7,25.5,20.5,0000.0,0002.72,0001.28,0001.14
2022-05-02 19:43:00,,0825.4,4.99,0.00,23.7,22.9,00.0,32.7,25.5,20.4,0000.0,0002.71,0001.26,0001.12
2022-05-02 19:44:00,,0825.4,5.00,0.00,23.7,22.9,00.0,32.7,25.5,20.6,0000.0,0001.96,0001.25,0001.10
2022-05-02 19:45:00,,0825.4,5.00,0.00,23.7,22.9,00.0,32.7,25.5,20.8,0000.0,0001.77,0001.23,0001.08
2022-05-02 19:46:00,,0825.4,5.01,0.00,23.7,22.9,00.0,32.7,25.5,20.8,0000.0,0001.76,0001.21,0001.05
2022-05-02 19:47:00,,0825.4,5.01,0.00,23.7,22.9,00.0,32.7,25.5,20.8,0000.0,0001.74,0001.17,0001.01
2022-05-02 19:48:00,,0825.4,5.00,0.00,23.7,22.9,00.0,32.7,25.5,20.6,0000.0,0001.66,0001.12,0000.97
2022-05-02 19:49:00,,0825.4,4.99,0.00,23.7,22.9,00.0,32.7,25.5,20.5,0000.0,0001.54,0001.05,0000.93
2022-05-02 19:50:00,,0825.4,5.00,0.00,23.7,22.9,00.0,32.6,25.5,20.5,0000.0,0001.49,0001.02,0000.90
2022-05-02 19:51:00,,0825.4,5.00,0.00,23.7,22.9,00.0,32.7,25.5,20.6,0000.0,0001.51,0001.05,0000.93
2022-05-02 19:52:00,,0825.4,5.01,0.00,23.7,22.9,00.0,32.6,25.5,20.3,0000.0,0001.55,0001.09,0000.97
2022-05-02 19:53:00,,0825.4,5.00,0.00,23.7,22.9,00.0,32.6,25.5,20.1,0000.0,0001.59,0001.14,0001.02
2022-05-02 19:54:00,,0825.4,4.99,0.00,23.7,22.9,00.0,32.6,25.5,20.0,0000.0,0001.66,0001.21,0001.08
2022-05-02 19:55:00,,0825.4,5.00,0.00,23.7,22.9,00.0,32.6,25.5,20.0,0000.0,0001.69,0001.26,0001.12
2022-05-02 19:56:00,,0825.4,5.00,0.00,23.7,22.9,00.0,32.6,25.5,20.5,0000.0,0001.69,0001.31,0001.16
2022-05-02 19:57:00,,0825.4,5.01,0.00,23.7,22.9,00.0,32.6,25.5,20.3,0000.0,0001.71,0001.34,0001.20
2022-05-02 19:58:00,,0825.5,5.00,0.00,23.7,22.9,00.0,32.6,25.5,20.1,0000.0,0001.69,0001.36,0001.23
2022-05-02 19:59:00,,0825.4,4.99,0.00,23.7,22.9,00.0,32.6,25.5,20.3,0000.0,0001.69,0001.38,0001.26
